RH
25 28 28 29 30 29 29 29 29 32 31 30 31 30 28 27 26 25 28 28 25 24 23 22 22 21 21 24 25 25 23 19 19 19 20 22 22 22 22 21 21 21 22 23 25 30 28 22 23 24 25 28 29 26 23 22 23 22 19 17 17 16 16 19 20 18 16 15 16 17 16 16 16 16 18 24 23 19 19 15 10 12 12 12 13 13
25 28 31 33 35 33 33 31 30 30 29 29 28 28 28 26 26 27 29 28 25 25 22 21 24 23 23 24 24 26 27 23 18 18 18 19 20 20 20 19 19 19 20 21 22 28 29 23 23 24 24 27 29 27 23 22 25 23 23 23 21 18 17 18 20 19 17 16 15 16 15 14 16 14 11 17 19 16 16 13 12 14 13 13 13 13
26 27 33 38 38 36 33 29 28 29 29 28 26 28 29 27 26 28 30 28 25 25 20 18 23 25 26 25 25 26 27 25 19 17 18 17 17 18 18 18 18 19 18 19 22 26 26 23 24 24 24 26 28 28 25 25 28 28 27 30 26 21 20 18 18 21 20 16 15 15 14 13 15 14 9 11 14 15 20 21 20 20 19 16 15 16
33 33 38 41 38 35 33 30 30 31 29 28 28 29 29 27 26 26 30 32 28 25 20 19 24 27 25 22 21 22 23 22 18 18 19 17 17 17 18 18 18 19 18 20 24 25 23 23 24 25 24 25 26 29 29 27 28 32 32 33 30 22 21 20 18 20 19 16 16 14 14 14 15 16 15 16 19 20 23 24 23 26 24 18 17 18
36 38 38 38 37 35 33 31 31 30 30 31 31 31 29 28 29 27 32 36 29 22 18 18 20 19 18 18 18 19 19 17 16 18 18 18 19 18 18 17 17 20 21 24 26 22 21 23 23 24 24 25 26 26 30 28 27 31 34 33 30 24 22 22 20 20 19 19 20 18 19 20 20 21 19 17 16 17 22 25 24 25 21 18 20 22
34 38 34 33 35 32 30 33 33 30 31 32 31 32 30 28 30 28 28 28 22 21 23 22 19 18 21 22 20 20 21 17 14 15 16 18 19 17 15 15 18 22 23 26 28 23 20 22 22 24 25 26 26 25 28 28 26 28 33 33 30 26 24 22 21 21 20 21 23 22 23 22 20 22 19 14 12 12 17 22 23 25 23 19 20 22
30 34 30 28 29 26 28 32 34 33 30 29 29 31 30 25 24 26 24 21 20 25 34 33 26 22 24 24 23 23 22 18 14 13 14 15 16 14 15 17 18 21 22 23 26 25 22 21 22 23 24 26 26 26 26 27 25 26 30 32 29 28 27 23 22 23 21 23 23 20 20 20 20 21 18 13 13 12 12 14 17 23 27 24 22 22
28 29 26 26 25 25 28 29 30 31 28 30 33 34 31 24 21 24 24 25 24 26 35 36 28 21 17 18 21 25 25 21 16 14 13 12 13 13 15 18 18 20 22 21 23 25 22 21 23 23 24 26 28 30 29 26 25 24 28 31 28 29 31 26 24 25 23 26 26 20 19 21 21 19 16 15 15 14 13 11 12 18 23 25 24 24
32 30 27 25 22 24 27 26 29 31 28 31 35 33 29 24 23 25 27 29 27 26 30 29 29 27 20 17 23 25 24 23 19 17 16 13 14 16 16 18 18 20 24 23 23 24 23 22 23 23 25 25 29 35 33 26 24 24 27 30 28 30 32 28 26 26 25 26 25 23 23 25 23 18 17 20 20 16 15 13 12 13 16 21 23 24
33 29 26 21 20 24 25 24 29 30 27 30 30 26 24 23 23 25 28 29 27 27 29 26 29 33 26 23 30 32 26 22 21 23 23 19 16 16 17 18 18 20 24 25 24 23 22 23 23 23 24 26 32 40 34 24 23 25 27 29 28 30 31 28 26 27 26 26 24 23 23 23 22 19 18 20 20 17 16 16 15 13 15 20 21 19
26 22 18 15 17 23 25 25 27 24 22 26 26 24 25 26 26 28 29 29 28 27 26 23 26 31 26 19 25 34 33 26 21 23 27 25 20 18 18 18 19 20 23 25 26 25 23 22 24 25 28 33 38 38 30 23 24 26 27 28 28 29 30 29 27 27 27 26 24 22 22 20 20 19 18 18 18 18 18 17 17 17 17 18 17 14
20 18 15 13 14 17 21 23 22 19 19 22 23 25 28 28 31 34 34 35 35 32 27 23 24 30 29 20 21 33 35 27 19 19 25 26 22 19 18 19 19 20 22 23 25 28 27 23 27 33 36 40 38 29 24 23 25 26 27 28 29 29 30 29 27 27 27 27 25 23 22 21 20 19 18 18 18 18 19 19 19 20 21 22 21 19
25 22 18 17 15 15 17 21 22 21 19 20 23 27 29 28 33 35 35 36 37 34 30 28 31 34 31 24 23 28 29 23 16 16 24 26 22 20 19 19 20 20 22 24 25 29 30 27 31 37 38 37 30 23 23 25 25 26 27 27 28 29 29 28 27 27 27 26 25 24 23 22 20 20 19 18 18 18 19 22 21 21 22 24 25 22
32 29 28 26 24 22 20 22 27 28 27 27 26 30 31 31 36 36 34 36 35 34 33 34 40 41 36 29 23 23 25 24 19 16 22 25 21 20 20 20 22 20 21 25 26 29 32 31 31 33 33 32 26 22 24 26 26 27 27 27 28 29 30 29 26 25 26 26 26 25 23 22 21 19 18 17 17 18 19 21 21 20 20 21 21 21
33 31 34 36 36 35 30 26 27 29 31 34 32 32 32 32 36 35 33 35 36 39 41 44 49 46 38 31 26 24 25 26 23 18 19 21 20 20 20 21 22 22 21 22 24 26 30 35 32 28 29 30 28 26 25 25 26 26 26 26 27 30 30 27 25 24 25 26 26 26 24 22 20 19 18 18 17 18 18 19 19 19 20 19 20 20
31 30 32 36 36 36 32 28 27 27 28 31 32 32 32 31 36 38 37 38 40 42 41 41 44 41 34 30 27 26 25 23 22 21 19 20 20 20 20 19 20 21 21 21 23 24 27 34 32 27 29 31 29 30 29 26 24 24 25 26 25 28 30 26 24 23 23 25 26 26 25 23 21 20 19 18 18 19 19 19 19 19 19 18 18 19
30 30 32 36 34 31 29 27 27 27 27 29 31 33 35 36 38 42 40 39 42 44 39 35 36 34 31 30 28 27 27 25 23 23 22 21 20 20 21 20 19 21 22 21 22 23 25 31 31 27 32 33 28 31 32 28 25 24 25 26 24 27 30 27 23 23 24 26 26 26 27 24 22 21 20 20 20 20 20 20 20 20 19 19 18 17
29 29 29 32 32 29 28 27 26 27 26 27 28 30 33 35 36 39 41 39 40 42 40 37 35 33 34 33 30 31 33 35 34 30 28 25 22 20 21 22 22 22 22 22 23 24 26 31 31 27 29 30 27 31 33 28 25 26 26 26 24 25 28 26 24 24 25 26 27 27 27 26 23 22 22 22 22 22 22 21 21 20 19 19 18 17
29 30 26 25 27 28 29 29 28 26 24 24 25 27 29 31 32 35 40 41 43 45 43 40 36 34 34 34 34 36 37 41 43 42 39 35 30 25 22 23 24 24 24 24 25 25 27 30 31 28 27 27 28 33 35 29 26 27 26 25 24 25 28 28 26 26 26 26 27 27 27 25 24 23 23 24 24 24 23 23 22 22 21 19 18 17
32 37 32 25 25 29 31 33 32 29 27 27 29 29 30 32 31 30 35 40 43 45 44 40 36 33 31 30 33 37 39 41 44 46 46 44 41 38 34 29 26 26 26 26 26 27 28 29 30 30 30 31 33 35 34 31 29 28 26 25 25 27 32 32 29 27 27 27 27 27 27 25 24 24 24 25 25 25 25 24 24 22 21 20 19 19
30 36 33 25 26 30 30 32 32 29 31 35 37 37 36 36 36 37 39 40 41 45 45 42 38 31 28 30 32 36 38 40 42 44 45 45 44 44 46 43 35 30 30 30 29 28 28 29 30 31 33 35 37 35 33 32 31 27 25 25 25 27 32 32 29 29 29 28 28 27 26 25 24 25 26 26 27 26 26 25 24 23 22 22 21 22
31 36 38 34 34 34 31 30 30 29 30 32 36 37 37 39 43 48 48 40 38 44 44 44 43 33 27 31 33 35 38 38 40 42 42 44 46 46 50 51 43 35 33 34 33 32 32 32 32 33 34 36 37 36 35 33 30 26 25 26 26 27 30 31 28 29 29 29 29 28 27 27 26 27 27 27 27 27 26 26 25 24 24 24 25 27
33 36 38 35 32 29 27 26 27 29 29 30 34 33 34 39 41 46 48 41 41 45 43 46 49 36 26 31 36 39 42 40 41 43 42 43 46 46 46 46 45 39 35 34 35 36 36 34 34 35 36 37 40 41 37 31 28 27 26 27 27 27 29 30 29 30 32 31 30 29 29 29 29 29 28 28 28 27 26 27 26 27 27 28 29 31
35 35 36 33 28 24 23 22 23 24 25 27 29 29 31 34 35 39 42 40 46 49 44 49 52 36 24 30 39 44 45 43 44 45 44 43 43 44 43 42 44 43 39 38 38 39 40 38 36 36 37 38 42 42 37 32 30 29 28 28 28 27 27 30 32 34 36 35 34 34 33 32 31 31 29 29 28 27 27 27 28 29 30 30 31 33
38 38 40 40 37 31 26 23 21 24 29 30 30 35 40 41 45 48 45 46 54 51 45 54 56 38 27 32 41 47 48 47 47 47 46 45 42 42 44 43 44 44 42 41 43 43 43 40 38 39 38 37 39 40 37 36 34 31 29 29 28 28 28 32 35 38 38 37 38 38 37 35 33 32 31 30 29 28 28 28 29 30 31 31 32 33
33 34 34 37 38 35 28 24 24 29 36 35 35 39 43 46 49 51 51 54 56 47 46 58 58 42 32 34 39 46 49 48 48 47 47 48 48 48 50 49 47 46 42 41 43 45 45 42 40 41 40 38 40 40 37 36 35 33 30 28 28 28 29 34 37 38 38 37 38 40 39 38 36 35 33 31 29 29 28 29 30 31 32 33 33 32
31 30 28 29 30 28 24 22 25 31 35 34 33 34 36 37 38 42 48 48 44 43 46 50 52 47 40 37 39 43 45 45 45 43 43 47 52 55 58 58 53 49 46 44 44 45 47 46 42 42 43 42 41 40 37 34 34 33 31 28 27 29 30 34 36 37 37 38 39 40 40 40 39 37 35 32 30 30 29 29 31 31 32 33 32 31
31 30 29 30 27 24 22 21 25 33 35 34 34 31 28 28 28 33 38 33 32 42 43 35 40 48 43 36 35 36 36 36 36 37 40 47 52 53 55 60 60 57 53 50 48 47 49 49 44 41 44 44 41 39 37 34 34 33 31 29 28 31 32 33 33 35 38 39 41 41 41 41 40 37 34 32 31 30 30 31 33 33 33 32 31 32
35 32 31 33 29 25 24 24 29 39 40 36 33 27 23 24 28 34 35 31 32 38 35 27 32 40 37 28 24 22 25 27 27 30 35 42 50 51 51 55 62 65 62 57 55 52 51 51 47 43 43 44 42 40 38 36 34 33 32 31 32 34 33 30 31 35 38 39 40 41 41 41 39 35 33 33 32 33 33 33 34 33 32 32 32 33
41 37 37 39 33 27 26 26 31 35 34 29 24 21 18 21 29 35 33 29 30 31 29 28 32 34 28 21 16 14 18 23 23 25 26 30 38 45 48 51 57 64 67 65 63 57 52 52 51 48 45 45 44 41 38 37 35 33 34 36 36 36 34 32 32 35 37 38 39 41 42 41 38 36 35 35 35 35 36 34 33 33 33 34 34 34
42 40 42 43 37 29 25 25 24 23 22 20 19 18 18 22 29 32 28 26 28 29 28 30 35 33 21 13 12 13 16 22 22 22 23 24 28 38 46 48 51 58 64 67 66 63 57 54 53 50 46 45 44 41 39 37 36 35 36 38 38 36 35 34 33 35 36 38 39 40 40 40 38 37 37 36 37 37 36 35 35 35 35 35 35 35
38 36 36 40 39 28 23 27 28 26 24 22 21 20 21 23 26 26 25 28 30 33 34 34 36 31 18 12 16 18 19 22 22 21 23 24 26 35 46 50 52 56 60 62 64 66 64 59 55 52 46 44 44 42 40 38 37 37 37 38 37 36 35 33 33 35 36 37 39 39 39 38 38 38 38 37 38 37 36 36 36 35 35 34 34 36
35 34 32 38 38 27 23 28 30 31 31 25 21 22 24 26 31 33 35 37 37 40 41 38 35 30 22 20 25 26 24 23 24 25 28 30 33 37 42 47 53 56 56 55 57 63 66 63 58 51 46 45 45 43 41 39 37 37 37 37 36 35 33 33 34 35 36 38 39 38 38 38 37 37 37 37 36 37 37 37 36 34 34 33 34 36
34 34 31 32 33 28 23 24 29 36 35 23 17 20 24 30 37 41 43 44 45 46 45 43 38 31 28 31 33 32 29 27 30 33 34 37 44 47 44 43 51 57 53 51 57 64 67 64 56 48 46 48 46 43 42 39 37 37 37 37 36 34 33 33 33 35 36 38 39 38 37 37 37 37 37 36 36 37 36 36 35 34 33 34 36 40
32 33 32 29 30 28 23 28 42 45 33 21 20 22 25 32 39 45 48 46 45 46 47 47 42 35 35 40 40 40 40 39 39 41 39 36 41 50 53 49 50 55 54 55 62 67 66 62 54 49 50 51 48 45 43 39 37 38 37 37 36 34 33 32 33 36 38 38 38 38 37 38 38 38 37 36 37 36 35 35 34 34 35 38 43 47
34 36 37 34 33 32 29 36 46 40 27 24 28 27 29 37 44 50 52 46 41 44 45 41 39 39 40 40 40 46 54 51 44 40 39 37 38 47 57 58 54 52 55 61 67 68 66 61 56 54 54 54 50 48 45 40 38 38 38 37 34 32 32 33 35 37 37 38 39 39 39 39 39 38 38 38 37 35 34 34 34 37 40 44 48 50
40 40 42 42 43 46 48 47 46 44 38 33 34 36 41 47 51 54 54 44 36 39 41 38 40 45 43 38 38 45 52 53 44 34 36 44 47 48 54 62 61 57 57 63 68 68 64 61 60 59 58 57 54 50 44 40 39 39 37 34 32 32 33 35 37 38 37 39 40 40 39 39 39 40 40 39 37 34 34 36 38 41 45 47 48 49
39 41 46 52 53 54 58 56 53 58 51 39 44 55 55 54 56 55 54 46 34 36 43 47 52 55 49 44 45 47 51 52 46 39 43 52 55 54 55 60 62 63 63 65 67 66 63 62 64 65 63 60 55 48 42 39 38 37 34 32 33 34 35 36 38 39 39 39 40 39 39 39 40 41 40 38 36 36 37 40 44 47 49 50 51 52
38 42 51 61 58 54 59 61 59 61 53 40 50 64 59 56 61 61 56 47 37 43 53 57 61 64 60 57 54 52 56 56 49 47 51 56 61 67 65 61 61 65 66 66 65 63 62 66 70 69 67 62 53 46 40 37 36 34 32 33 35 36 37 38 39 39 39 39 39 39 40 41 42 42 41 40 40 42 44 47 49 51 52 54 55 56
39 43 51 59 56 53 60 62 55 52 46 40 50 61 58 58 65 65 58 46 41 52 63 62 60 60 59 58 55 52 56 57 51 50 56 66 78 83 76 68 68 69 67 66 65 62 63 70 74 72 66 58 49 43 40 37 35 34 33 35 37 37 39 41 40 40 40 40 40 40 41 43 43 43 44 45 46 49 50 51 51 51 51 53 55 57
41 46 50 55 56 56 60 63 58 53 49 49 57 63 62 62 64 63 55 47 46 52 59 60 56 52 49 51 51 50 53 54 52 52 60 73 85 85 78 73 73 72 68 65 64 65 69 73 73 68 61 53 47 43 40 37 35 35 36 38 38 39 41 41 40 40 41 40 40 41 42 43 44 45 47 50 50 50 50 48 48 48 49 53 58 62
49 55 53 53 57 59 57 57 56 54 54 59 65 66 66 69 68 60 52 51 54 56 58 58 53 47 45 46 48 49 50 51 53 57 64 73 79 79 78 77 78 78 74 68 69 72 72 70 68 63 55 50 46 43 39 37 37 38 39 39 40 41 41 40 40 41 41 41 41 43 44 46 48 49 51 53 51 48 46 44 43 46 52 60 65 67
54 59 57 52 56 61 59 57 56 57 59 63 65 68 70 70 64 55 49 50 54 58 61 59 52 48 49 48 48 49 49 51 57 61 68 76 81 83 84 85 85 84 78 75 75 72 67 64 62 58 53 48 44 41 39 39 39 40 40 40 42 43 41 41 42 42 41 42 43 46 48 49 48 48 49 50 48 46 42 40 44 52 62 69 72 72
51 56 57 52 52 57 60 58 55 56 57 58 60 62 63 62 58 54 52 53 54 56 60 60 55 53 55 54 53 51 49 53 58 64 74 85 90 92 93 90 85 81 77 76 75 69 64 60 56 52 50 46 42 41 41 41 41 41 42 43 43 42 41 43 44 42 42 45 47 49 49 47 44 43 44 46 46 43 39 41 50 63 72 76 77 77
52 55 59 56 54 54 54 52 52 50 48 48 51 52 51 51 53 55 56 57 57 56 62 69 66 58 56 58 58 57 56 58 60 67 82 94 95 93 92 88 81 77 74 72 69 64 60 54 48 47 47 43 41 41 41 41 43 42 43 44 43 41 42 44 43 43 47 49 50 48 44 40 39 40 43 44 43 39 39 47 59 70 77 79 80 80
53 59 62 59 55 55 53 48 48 47 43 42 46 45 40 41 50 60 63 59 54 53 59 72 73 64 60 62 62 61 62 61 61 70 87 96 93 88 87 84 78 72 68 64 61 58 54 49 46 46 45 42 42 43 42 44 46 45 44 44 42 40 41 42 44 48 52 52 48 43 39 37 39 41 43 43 39 38 42 52 64 73 78 79 81 83
58 64 63 57 60 70 67 54 46 46 45 47 49 44 37 40 52 61 61 55 54 53 54 64 70 67 67 71 70 69 68 65 66 76 89 93 88 83 83 80 72 65 62 60 57 55 51 47 46 46 46 45 44 44 43 44 46 47 48 44 40 39 41 44 49 54 54 50 44 40 38 40 43 45 43 39 36 37 44 54 65 74 78 80 82 86
59 63 62 60 68 78 72 58 55 57 55 53 52 48 47 51 59 62 58 54 58 58 53 59 69 70 71 76 77 77 76 72 73 82 89 89 83 81 83 81 71 62 59 57 55 51 49 48 48 48 48 46 44 44 43 41 43 48 48 42 39 42 46 50 55 56 52 46 42 41 43 46 47 46 42 36 34 37 44 53 64 72 76 79 85 90
53 57 60 63 69 70 62 54 54 59 59 57 56 58 60 58 59 66 66 62 62 61 56 60 69 72 74 79 81 82 81 76 75 82 87 86 83 81 83 82 73 63 57 55 53 51 49 49 52 53 51 46 43 43 41 38 41 48 46 41 42 49 54 57 58 55 48 45 44 47 50 51 50 47 42 35 33 36 43 50 60 68 73 79 87 93
55 60 62 65 64 61 57 55 56 60 63 61 58 61 64 59 55 60 66 65 65 64 62 64 69 73 79 85 86 84 81 76 78 84 86 86 85 83 85 85 78 70 64 58 53 52 50 48 50 55 57 52 45 41 39 40 44 48 46 45 50 57 60 60 56 50 46 48 53 55 54 52 51 48 43 36 33 35 42 48 54 61 67 76 88 96
61 62 60 60 58 51 49 55 64 67 64 59 56 55 58 58 53 53 60 68 70 65 61 65 72 79 86 91 89 85 81 79 82 85 85 85 84 83 84 83 79 75 70 60 54 56 56 50 47 54 60 57 49 43 43 45 46 47 49 52 58 62 61 56 52 48 50 56 60 57 53 51 50 46 41 37 34 36 40 45 49 53 61 73 87 95